Location: Abbey Hill
(34.0751°N, 84.0688°W)
Time: 23:39:02
(UTC+00:00)

Envisat - Visible Passes

Search period start: 28 September 2021 00:00
Search period end: 08 October 2021 00:00
Orbit: 764 x 766 km, 98.2° (Epoch: 28 September)

Date Brightness Start Highest point End Pass type
(mag) Time Alt. Az. Time Alt. Az. Time Alt. Az.
28 Sep 3.5 10:31:05 10° NNE 10:36:09 65° ESE 10:41:10 10° S visible
29 Sep 5.2 09:54:55 10° NE 09:59:11 27° E 10:03:25 10° SSE visible
30 Sep 6.2 09:20:57 10° ENE 09:22:02 11° E 09:23:07 10° ESE visible
30 Sep 3.0 10:56:23 10° N 11:01:27 68° WNW 11:06:28 10° SSW visible
01 Oct 4.0 10:19:41 10° NNE 10:24:37 49° E 10:29:30 10° S visible
02 Oct 5.6 09:43:50 10° NE 09:47:36 21° E 09:51:20 10° SE visible
03 Oct 3.0 10:44:51 10° NNE 10:49:57 88° WNW 10:55:02 10° SSW visible
04 Oct 4.5 10:08:21 10° NNE 10:13:04 38° E 10:17:45 10° SSE visible
05 Oct 5.9 09:32:57 10° NE 09:36:00 16° E 09:39:00 10° SE visible
06 Oct 3.3 10:33:21 10° NNE 10:38:26 71° ESE 10:43:30 10° S visible
07 Oct 5.0 09:57:06 10° NE 10:01:30 29° E 10:05:52 10° SSE visible
